Tehachapi, CA

12:34 AM PDT on August 28, 2016 (GMT -0700)
Tehachapi Municipal

Weather History for KTSP - April, 2013

Change the Weather History Date:

Tuesday, April 9, 2013

  Actual Average Record
Temperature  
Mean Temperature 44 °F -  
Max Temperature 55 °F 63 °F 75 °F (2014)
Min Temperature 32 °F 36 °F 26 °F (2015)
Degree Days  
Heating Degree Days 22    
Moisture  
Dew Point 27 °F    
Average Humidity 55    
Maximum Humidity 81    
Minimum Humidity 30    
Precipitation  
Precipitation 0.00 in - - ()
Sea Level Pressure  
Sea Level Pressure 29.99 in    
Wind  
Wind Speed 10 mph (WNW)    
Max Wind Speed 21 mph    
Max Gust Speed 28 mph    
Visibility 10 miles    
Events      
Averages and records for this station are not official NWS values.
T = Trace of Precipitation, MM = Missing Value Source: NWS Daily Summary

Daily Weather History Graph

Daily Weather History Graph

Search for Another Location

Airport or City:

Trip Planner

Search our weather history database for the weather conditions in past years. The results will help you decide how hot, cold, wet, or windy it might be!

Date:

Astronomy

Apr. 09, 2013 Rise Set
Actual Time 6:29 AM PDT 7:21 PM PDT
Civil Twilight 6:03 AM PDT 7:47 PM PDT
Nautical Twilight 5:32 AM PDT 8:18 PM PDT
Astronomical Twilight 5:01 AM PDT 8:49 PM PDT
Moon 5:53 AM PDT (4/9) 7:01 PM PDT (4/9)
Length of Visible Light 13h 44m
Length of Day
12h 52m
Waning Crescent, 0% of the Moon is Illuminated
Apr 9
Waning Crescent
Apr 10
New
Apr 18
First Quarter
Apr 25
Full
May 2
Last Quarter

Hourly Weather History & Observations

Time (PDT) Temp. Windchill Dew Point Humidity Pressure Visibility Wind Dir Wind Speed Gust Speed Precip Events Conditions
12:15 AM 39.2 °F 31.6 °F 33.8 °F 81% 29.88 in 10.0 mi West 12.7 mph - N/A   Overcast
12:35 AM 39.2 °F 32.0 °F 32.0 °F 75% 29.89 in 10.0 mi West 11.5 mph 17.3 mph N/A   Overcast
12:55 AM 37.4 °F 30.8 °F 32.0 °F 81% 29.90 in 10.0 mi West 9.2 mph - N/A   Overcast
1:15 AM 37.4 °F 29.8 °F 32.0 °F 81% 29.90 in 10.0 mi West 11.5 mph - N/A   Mostly Cloudy
1:35 AM 35.6 °F 28.0 °F 30.2 °F 81% 29.89 in 10.0 mi West 10.4 mph - N/A   Partly Cloudy
1:55 AM 35.6 °F 28.6 °F 28.4 °F 75% 29.89 in 10.0 mi West 9.2 mph - N/A   Clear
2:15 AM 35.6 °F 29.2 °F 26.6 °F 70% 29.89 in 10.0 mi NW 8.1 mph - N/A   Clear
2:35 AM 35.6 °F 30.7 °F 26.6 °F 70% 29.89 in 10.0 mi NW 5.8 mph - N/A   Clear
2:55 AM 35.6 °F 31.7 °F 26.6 °F 70% 29.89 in 10.0 mi WNW 4.6 mph - N/A   Clear
3:15 AM 37.4 °F 31.4 °F 26.6 °F 65% 29.89 in 10.0 mi West 8.1 mph - N/A   Clear
3:35 AM 35.6 °F 29.2 °F 26.6 °F 70% 29.89 in 10.0 mi WSW 8.1 mph - N/A   Clear
3:55 AM 35.6 °F 32.8 °F 26.6 °F 70% 29.89 in 10.0 mi WNW 3.5 mph - N/A   Clear
4:15 AM 35.6 °F - 26.6 °F 70% 29.90 in 10.0 mi Calm Calm - N/A   Clear
4:35 AM 32.0 °F - 26.6 °F 80% 29.90 in 10.0 mi Calm Calm - N/A   Clear
4:55 AM 32.0 °F 28.7 °F 26.6 °F 80% 29.92 in 10.0 mi SW 3.5 mph - N/A   Clear
5:15 AM 32.0 °F - 26.6 °F 80% 29.92 in 10.0 mi Calm Calm - N/A   Clear
5:35 AM 32.0 °F 28.7 °F 26.6 °F 80% 29.92 in 10.0 mi NNE 3.5 mph - N/A   Clear
5:55 AM 33.8 °F 29.6 °F 26.6 °F 75% 29.92 in 10.0 mi WNW 4.6 mph - N/A   Clear
6:15 AM 32.0 °F 27.5 °F 26.6 °F 80% 29.93 in 10.0 mi North 4.6 mph - N/A   Clear
6:35 AM 32.0 °F 26.4 °F 26.6 °F 80% 29.94 in 10.0 mi North 5.8 mph - N/A   Clear
6:55 AM 32.0 °F 26.4 °F 26.6 °F 80% 29.94 in 10.0 mi WNW 5.8 mph - N/A   Clear
7:15 AM 35.6 °F 27.1 °F 26.6 °F 70% 29.95 in 10.0 mi West 12.7 mph - N/A   Clear
7:35 AM 37.4 °F 30.8 °F 26.6 °F 65% 29.96 in 10.0 mi WNW 9.2 mph - N/A   Clear
7:55 AM 39.2 °F 34.2 °F 26.6 °F 61% 29.98 in 10.0 mi West 6.9 mph - N/A   Clear
8:15 AM 41.0 °F 34.3 °F 28.4 °F 61% 29.97 in 10.0 mi West 11.5 mph - N/A   Clear
8:35 AM 41.0 °F 33.5 °F 28.4 °F 61% 29.98 in 10.0 mi West 13.8 mph 19.6 mph N/A   Clear
8:55 AM 41.0 °F 32.8 °F 26.6 °F 57% 29.99 in 10.0 mi West 16.1 mph 20.7 mph N/A   Clear
9:15 AM 42.8 °F 34.5 °F 28.4 °F 57% 29.99 in 10.0 mi West 18.4 mph 21.9 mph N/A   Clear
9:35 AM 44.6 °F 37.2 °F 28.4 °F 53% 29.99 in 10.0 mi West 17.3 mph - N/A   Clear
9:55 AM 44.6 °F 37.8 °F 28.4 °F 53% 29.99 in 10.0 mi WSW 15.0 mph 20.7 mph N/A   Clear
10:15 AM 44.6 °F 37.2 °F 30.2 °F 57% 29.99 in 10.0 mi WSW 17.3 mph 21.9 mph N/A   Clear
10:35 AM 46.4 °F 39.8 °F 28.4 °F 50% 30.00 in 10.0 mi WSW 16.1 mph - N/A   Clear
10:55 AM 48.2 °F - 28.4 °F 46% 30.00 in 10.0 mi West 20.7 mph 24.2 mph N/A   Clear
11:15 AM 48.2 °F - 28.4 °F 46% 30.01 in 10.0 mi West 18.4 mph 24.2 mph N/A   Clear
11:35 AM 48.2 °F - 28.4 °F 46% 30.02 in 10.0 mi West 16.1 mph 23.0 mph N/A   Clear
11:55 AM 48.2 °F - 26.6 °F 43% 30.02 in 10.0 mi WSW 17.3 mph 23.0 mph N/A   Clear
12:15 PM 48.2 °F - 26.6 °F 43% 30.01 in 10.0 mi WSW 16.1 mph - N/A   Clear
12:35 PM 50.0 °F - 26.6 °F 40% 30.01 in 10.0 mi West 9.2 mph - N/A   Clear
12:55 PM 51.8 °F - 28.4 °F 41% 30.01 in 10.0 mi West 12.7 mph 25.3 mph N/A   Clear
1:15 PM 53.6 °F - 28.4 °F 38% 30.00 in 10.0 mi NW 11.5 mph - N/A   Clear
1:35 PM 53.6 °F - 30.2 °F 41% 30.00 in 10.0 mi NNW 12.7 mph 19.6 mph N/A   Clear
1:55 PM 53.6 °F - 30.2 °F 41% 30.00 in 10.0 mi WNW 13.8 mph 20.7 mph N/A   Clear
2:15 PM 53.6 °F - 30.2 °F 41% 30.00 in 10.0 mi NW 12.7 mph 19.6 mph N/A   Clear
2:35 PM 53.6 °F - 28.4 °F 38% 30.00 in 10.0 mi WNW 12.7 mph 21.9 mph N/A   Clear
2:55 PM 55.4 °F - 26.6 °F 33% 29.99 in 10.0 mi WNW 16.1 mph 20.7 mph N/A   Clear
3:15 PM 53.6 °F - 26.6 °F 35% 29.99 in 10.0 mi WNW 15.0 mph 20.7 mph N/A   Clear
3:35 PM 53.6 °F - 26.6 °F 35% 29.99 in 10.0 mi NW 15.0 mph 20.7 mph N/A   Clear
3:55 PM 55.4 °F - 24.8 °F 31% 29.99 in 9.0 mi West 18.4 mph 26.5 mph N/A   Clear
4:15 PM 53.6 °F - 23.0 °F 30% 29.98 in 10.0 mi West 13.8 mph 20.7 mph N/A   Clear
4:35 PM 55.4 °F - 24.8 °F 31% 29.99 in 10.0 mi West 16.1 mph 25.3 mph N/A   Clear
4:55 PM 53.6 °F - 24.8 °F 33% 30.00 in 10.0 mi NW 15.0 mph 27.6 mph N/A   Clear
5:15 PM 53.6 °F - 26.6 °F 35% 30.00 in 10.0 mi NW 12.7 mph 19.6 mph N/A   Clear
5:35 PM 53.6 °F - 26.6 °F 35% 30.01 in 10.0 mi WNW 12.7 mph - N/A   Clear
5:55 PM 51.8 °F - 26.6 °F 38% 30.01 in 10.0 mi WNW 13.8 mph 19.6 mph N/A   Clear
6:15 PM 50.0 °F - 24.8 °F 37% 30.02 in 10.0 mi NW 13.8 mph 19.6 mph N/A   Clear
6:35 PM 50.0 °F - 24.8 °F 37% 30.02 in 10.0 mi WNW 13.8 mph - N/A   Clear
6:55 PM 48.2 °F - 24.8 °F 40% 30.03 in 10.0 mi NW 13.8 mph - N/A   Clear
7:15 PM 46.4 °F 40.4 °F 24.8 °F 43% 30.03 in 10.0 mi WNW 13.8 mph 18.4 mph N/A   Clear
7:35 PM 46.4 °F 41.5 °F 24.8 °F 43% 30.04 in 10.0 mi WNW 10.4 mph - N/A   Clear
7:55 PM 46.4 °F 42.4 °F 24.8 °F 43% 30.05 in 10.0 mi WNW 8.1 mph - N/A   Clear
8:15 PM 42.8 °F 39.3 °F 24.8 °F 49% 30.06 in 10.0 mi West 5.8 mph - N/A   Clear
8:35 PM 42.8 °F 39.3 °F 24.8 °F 49% 30.08 in 10.0 mi West 5.8 mph - N/A   Clear
8:55 PM 42.8 °F 38.6 °F 24.8 °F 49% 30.09 in 10.0 mi WNW 6.9 mph - N/A   Clear
9:15 PM 41.0 °F 36.4 °F 24.8 °F 53% 30.10 in 10.0 mi West 6.9 mph - N/A   Clear
9:35 PM 41.0 °F 37.1 °F 24.8 °F 53% 30.11 in 10.0 mi WNW 5.8 mph - N/A   Clear
9:55 PM 39.2 °F 35.0 °F 24.8 °F 56% 30.12 in 10.0 mi West 5.8 mph - N/A   Clear
10:15 PM 39.2 °F 37.0 °F 24.8 °F 56% 30.12 in 10.0 mi North 3.5 mph - N/A   Clear
10:35 PM 39.2 °F 33.0 °F 24.8 °F 56% 30.12 in 10.0 mi WNW 9.2 mph - N/A   Clear
10:55 PM 41.0 °F 35.8 °F 24.8 °F 53% 30.12 in 10.0 mi WNW 8.1 mph - N/A   Clear
11:15 PM 37.4 °F 32.8 °F 26.6 °F 65% 30.13 in 10.0 mi NNW 5.8 mph - N/A   Clear
11:35 PM 37.4 °F - 26.6 °F 65% 30.13 in 10.0 mi Calm Calm - N/A   Clear
11:55 PM 35.6 °F - 26.6 °F 70% 30.14 in 10.0 mi Calm Calm - N/A   Clear